Kosmos-723

operational
NORAD ID: 7718 Int'l Des: 1975-024 Owner: VMF Country: SU
LEOCIRCULAR

Über Kosmos-723

Beschreibung wird geladen...

Live-Position

3D-Globus wird geladen...

Nächste Überflüge

Höhenverlauf

Altitude vs Time

uPlot chart will show altitude changes over time

Zweizeiliger Elementsatz

1 07718U 75024A 26062.50855902 -.00000072 00000-0 16175-4 0 9995
2 07718 64.7161 214.8280 0040082 1.5188 358.5987 13.89658204584099
Epoch: 3. März 2026 • Age: 25 hours

Aktueller Status

Höhe 964.1 km
Geschwindigkeit 7.36 km/s
Subsatellitenpunkt -22.39°S, 136.44°W
Typ other

Große Konstellationen

Loading constellations...